Theta_e
278 280 279 279 280 280 280 280 280 280 280 279 280 279 279 280 279 280 280 280 280 279 279 279 278 279 278 280 279 278 279 279 279 278 278 279 278 279 278 278 278 278 279 279 279 279 279 278 278 278 278 278 278 279 279 278 278 279 279 277 277 277 277 276 274 275 277 278 278 278 278 278 276 277 276 277 277 278 281 278 278 278 278 278 278
280 280 279 280 279 280 280 279 280 279 280 279 280 280 279 280 280 279 279 280 280 280 280 279 279 279 278 278 279 279 279 279 278 279 279 279 278 280 280 278 278 278 278 278 278 279 279 278 279 279 278 278 278 278 278 278 278 277 277 278 277 277 277 276 275 275 274 276 277 277 277 277 275 277 276 277 276 278 277 277 278 278 277 277 277
280 280 279 279 279 279 279 279 279 279 279 279 280 280 280 279 279 280 280 280 280 280 280 280 280 279 279 279 279 279 279 279 279 279 279 279 279 279 280 279 279 279 278 279 279 278 278 279 279 279 279 278 278 278 278 278 278 278 278 278 277 277 277 277 275 274 275 275 277 276 276 276 275 276 277 277 277 277 276 276 277 278 278 278 277
280 280 279 279 279 279 279 279 279 279 279 280 280 280 280 280 280 280 280 279 280 280 280 280 279 279 279 279 279 279 279 279 279 279 279 279 279 279 279 279 279 279 279 279 279 278 278 278 279 279 278 278 278 278 278 278 278 278 278 277 277 277 277 277 276 275 275 275 275 276 277 275 276 277 277 278 277 276 276 276 276 276 276 277 277
280 280 279 279 279 279 279 279 279 279 279 279 280 280 280 280 280 280 280 280 280 279 280 280 279 279 280 280 280 279 279 279 279 279 279 279 279 280 279 279 279 279 279 280 281 279 279 279 279 278 278 278 279 278 278 277 278 278 277 277 277 277 278 277 276 276 275 274 275 276 276 276 276 276 277 275 276 276 276 276 276 276 276 276 277
280 280 279 279 280 279 279 279 279 279 280 280 280 280 280 280 280 280 280 280 280 280 280 280 280 280 280 280 280 280 280 279 279 279 279 279 279 279 279 279 279 279 279 279 279 280 280 279 279 279 278 278 279 279 278 278 278 277 277 277 277 277 276 276 276 275 275 275 275 275 275 275 275 275 276 276 275 275 275 276 276 276 276 275 276
280 280 280 279 280 280 280 280 280 280 280 280 280 280 280 280 279 280 280 280 280 280 280 280 280 280 280 280 280 280 280 280 279 279 279 279 279 279 279 279 279 279 279 279 280 279 279 280 280 279 279 279 279 279 279 278 279 278 278 277 277 276 276 276 276 275 275 275 275 275 274 275 275 274 275 275 275 275 274 274 274 276 276 275 275
280 280 280 280 280 281 281 280 280 280 280 280 280 280 280 280 280 280 279 279 280 280 280 280 280 280 280 280 280 280 280 280 279 279 279 279 279 279 279 279 279 279 279 279 279 279 279 279 280 280 279 280 279 279 279 279 279 278 278 277 277 276 276 276 276 275 275 275 274 274 275 274 274 275 275 274 274 274 275 274 272 273 274 275 275
281 280 280 280 281 281 281 280 280 280 280 280 280 280 280 280 280 280 279 280 280 280 280 280 280 280 280 280 280 280 280 280 280 280 279 279 279 279 279 279 279 279 279 279 279 279 279 279 279 279 282 284 284 284 283 282 280 278 278 277 277 276 276 276 276 275 275 275 274 275 274 274 274 274 273 273 273 273 274 274 273 274 274 274 275
281 281 281 281 282 282 281 280 281 280 280 280 280 280 280 280 280 279 279 280 280 280 279 280 279 280 280 280 279 280 280 281 283 285 285 281 279 280 280 279 279 279 279 279 279 279 279 279 280 283 284 284 284 285 285 285 285 282 278 277 278 278 277 276 275 275 275 274 274 274 273 273 273 273 273 274 274 274 273 273 272 273 274 274 276
281 281 282 283 282 282 281 281 280 280 280 280 280 280 280 280 279 279 280 280 280 279 279 279 279 279 279 280 279 280 281 282 285 286 287 287 283 280 279 279 279 279 279 279 279 279 279 279 279 281 283 283 283 285 285 286 286 286 285 284 282 280 278 277 276 277 276 276 275 274 274 273 274 274 274 274 274 273 273 273 273 274 273 273 272
281 282 282 283 282 282 281 281 280 281 280 280 280 280 280 279 279 279 279 279 280 279 279 279 279 279 280 279 279 280 281 284 286 287 287 288 288 284 281 280 280 279 279 279 279 279 279 279 279 279 279 279 279 280 282 285 286 286 286 285 285 284 283 281 279 277 277 276 275 275 275 274 274 274 273 273 273 274 274 274 274 274 274 274 274
281 282 282 282 282 282 281 281 281 281 281 281 281 280 279 279 279 279 279 280 279 279 279 279 279 279 279 279 279 280 280 284 286 287 287 288 289 287 283 282 281 280 280 280 279 279 279 279 279 280 279 282 282 279 278 279 284 284 283 283 282 282 282 282 282 280 279 277 276 275 275 274 273 273 274 274 276 274 275 275 275 275 276 275 274
281 282 282 282 282 282 281 281 281 281 281 281 280 280 279 280 280 280 280 279 279 279 279 279 279 279 279 279 280 280 280 283 286 287 287 288 288 288 284 283 282 282 281 281 281 280 279 279 279 279 279 279 279 279 278 277 277 276 276 276 277 278 280 280 280 280 280 278 276 274 275 275 274 275 276 277 276 275 275 275 276 275 274 273 274
282 282 282 282 282 281 281 281 281 282 281 281 280 280 280 280 280 280 280 280 279 279 279 279 279 279 279 279 279 280 281 284 285 286 287 288 288 288 284 283 282 282 282 281 281 281 280 280 279 279 279 279 279 279 277 276 276 276 275 275 276 277 277 277 277 276 276 276 275 275 275 275 275 275 276 277 277 277 277 277 276 274 274 274 273
282 282 282 282 282 282 281 281 281 281 281 281 280 280 280 280 280 280 280 280 279 279 279 279 279 280 280 279 279 279 280 284 285 286 287 287 288 286 284 282 282 281 281 282 282 282 282 281 280 280 279 278 280 282 280 277 276 275 275 275 275 275 275 278 279 280 279 277 276 276 276 277 279 279 279 279 279 279 277 277 275 274 271 269 267
282 282 282 283 283 282 282 282 282 281 281 281 280 281 281 281 281 280 280 280 279 279 279 280 280 280 279 279 279 279 280 283 285 286 286 287 287 284 282 281 281 281 281 281 281 282 282 281 280 279 278 277 280 283 282 281 276 275 275 274 274 274 274 276 279 280 280 280 280 281 281 281 281 282 281 281 279 278 275 272 270 270 267 265 266
283 283 283 283 283 283 282 282 282 282 281 281 281 281 281 281 281 281 280 280 280 280 280 280 279 279 279 279 279 279 280 282 284 285 286 287 286 283 282 281 281 281 280 281 280 280 279 281 280 278 277 276 281 282 281 279 275 275 274 274 274 273 274 275 275 276 279 279 280 280 281 281 280 280 279 279 279 277 272 268 269 269 266 266 264
283 283 284 284 283 283 283 282 282 282 281 281 281 281 281 281 281 280 280 280 280 280 279 279 279 279 279 279 280 279 280 281 284 285 286 286 286 283 281 280 280 280 280 279 278 278 277 280 281 278 277 278 281 281 280 279 275 275 274 274 273 273 273 273 273 274 275 275 276 277 277 277 276 275 275 276 276 275 272 270 269 267 265 265 265
285 285 284 284 284 283 282 282 282 282 282 282 281 281 281 281 280 280 280 279 279 279 279 279 279 279 279 278 279 279 279 279 280 284 285 286 287 283 281 280 279 279 279 278 276 275 276 277 280 281 281 281 280 281 281 281 276 275 274 273 273 273 274 274 275 276 276 276 275 275 274 274 274 273 272 271 271 271 271 270 269 268 266 265 265
285 285 284 284 283 283 283 282 282 282 282 282 282 281 280 280 280 279 279 279 278 278 278 278 278 278 278 278 278 278 279 279 279 283 284 285 286 286 281 280 280 279 278 276 276 275 275 275 276 280 282 281 281 280 280 280 280 276 274 274 274 276 278 277 277 276 274 273 273 272 272 271 271 270 269 269 269 269 269 270 269 269 268 266 265
285 284 284 283 283 283 283 282 282 282 282 281 280 280 280 280 280 279 278 278 278 278 278 277 277 278 278 277 277 277 278 279 278 281 283 285 286 286 283 280 280 278 276 275 275 275 275 275 274 277 280 280 280 280 280 279 279 276 276 279 280 279 278 276 273 272 271 270 270 269 267 266 266 265 266 266 267 268 268 268 269 269 269 268 267
284 284 284 283 283 283 283 282 282 282 281 281 280 280 280 278 278 278 278 277 277 277 277 277 276 277 277 277 276 276 276 276 280 279 281 283 285 286 287 282 283 278 277 275 275 275 275 275 274 278 279 279 279 279 279 279 278 277 279 279 279 279 275 270 271 269 268 267 265 264 263 263 263 264 265 265 267 267 268 268 268 267 267 267 267
284 284 283 283 283 283 283 282 282 281 281 280 279 280 279 279 278 277 277 277 277 277 277 276 275 276 276 277 276 275 274 274 277 279 279 282 285 287 287 284 284 278 277 276 275 274 274 274 275 278 278 278 278 278 279 279 278 278 278 278 277 274 270 269 267 266 264 262 261 261 261 263 263 264 265 266 266 266 266 266 265 265 265 265 265
284 283 283 283 283 283 282 282 281 281 281 280 279 279 279 278 278 277 276 276 276 276 277 276 275 276 275 276 276 275 274 274 274 277 280 283 287 286 285 284 283 281 275 274 274 274 276 277 277 277 277 278 278 278 276 276 276 276 276 276 273 269 266 263 262 261 261 262 263 263 263 264 265 265 266 265 265 264 263 262 263 263 263 263 263
283 283 284 283 283 283 281 282 281 280 280 279 279 280 280 279 278 278 277 277 276 276 276 276 275 275 275 276 275 275 273 272 273 274 277 280 282 285 284 283 282 279 276 274 276 278 278 277 277 277 276 275 274 272 273 273 275 274 273 271 268 265 263 261 260 262 263 264 263 263 263 263 263 264 264 263 261 260 260 259 259 259 258 258 259
283 283 283 283 283 282 281 282 281 280 279 278 278 278 278 278 278 277 277 276 276 275 275 275 275 274 275 275 274 271 270 270 271 272 271 274 275 278 278 277 278 277 274 274 275 274 276 275 274 275 275 276 275 275 273 272 270 269 267 266 264 264 261 262 262 262 262 261 261 261 261 262 261 260 259 259 258 259 259 259 258 258 258 258 257
282 283 283 283 283 283 282 278 279 281 280 279 278 278 277 277 277 278 278 277 276 276 275 275 275 276 275 275 272 267 268 269 271 272 272 273 272 273 273 273 273 271 271 272 272 273 273 274 275 274 272 270 270 268 267 266 267 267 266 263 261 263 264 265 264 260 260 260 260 259 258 257 257 258 258 257 258 258 258 257 257 257 258 257 256
282 282 283 283 282 282 281 281 280 280 280 279 279 279 279 277 277 278 279 278 279 278 277 277 277 277 276 275 273 271 269 271 272 275 274 276 273 271 271 271 270 271 273 274 272 272 272 272 271 270 270 269 268 268 267 266 265 264 262 260 258 257 256 256 257 258 256 256 257 257 257 257 257 257 257 257 257 257 257 255 256 256 256 256 255
281 282 283 282 282 281 280 280 280 279 279 279 279 278 276 279 279 278 278 277 279 280 281 278 276 275 275 275 275 275 275 275 277 278 277 277 278 276 275 274 274 272 275 277 274 271 271 269 269 269 268 267 266 266 266 265 264 262 260 262 259 257 256 256 256 257 256 257 257 256 256 256 256 256 256 256 256 256 256 258 256 256 255 255 254
281 282 283 282 282 281 281 281 280 279 279 279 278 278 277 274 279 280 280 278 278 279 280 281 282 280 275 274 274 278 279 279 279 279 278 278 278 277 277 277 277 276 277 276 272 270 269 268 268 268 268 267 267 267 265 263 261 259 258 257 256 257 257 255 255 255 256 255 256 255 256 256 255 256 255 256 256 256 256 255 255 255 255 254 254
281 283 283 283 282 281 281 281 280 279 279 277 277 277 277 277 274 276 277 278 278 279 280 280 281 281 280 278 273 272 277 279 280 279 277 278 278 278 278 278 278 278 278 277 271 270 270 269 268 268 268 267 266 264 262 260 259 256 255 255 256 255 255 256 256 253 255 254 255 255 255 255 255 255 255 255 256 255 255 255 254 254 254 254 254
282 283 283 283 283 282 281 280 280 279 279 278 277 276 276 276 277 275 271 276 277 278 279 280 281 281 281 280 278 277 278 279 280 279 277 278 278 278 278 278 278 278 277 274 270 270 269 268 267 266 265 264 263 261 259 256 255 255 254 254 255 255 255 256 257 255 255 255 255 255 255 255 255 255 255 255 255 254 254 254 254 254 254 253 254
282 283 283 283 282 282 281 281 280 280 279 279 279 278 277 277 277 276 274 269 271 274 277 278 279 280 280 279 278 279 279 280 279 278 278 277 278 278 277 275 276 276 275 269 268 267 265 264 263 262 260 258 257 256 255 254 254 254 254 254 254 254 255 254 254 254 254 254 254 254 255 254 254 254 254 254 254 254 254 254 254 253 253 253 253
283 280 278 279 282 282 282 281 280 280 279 279 278 277 277 276 275 275 275 274 273 272 271 269 274 277 275 277 278 279 279 279 278 277 277 277 277 277 276 272 269 265 263 261 263 263 262 261 260 259 256 256 255 254 254 253 253 253 253 253 253 253 253 253 254 253 253 253 253 253 254 254 253 254 254 253 253 253 253 253 253 253 253 253 252
282 282 282 280 280 280 280 281 281 280 280 279 278 278 276 275 274 274 274 274 273 272 268 266 265 271 275 277 278 278 278 278 277 277 276 277 276 275 268 267 266 264 262 260 258 257 257 257 256 256 254 254 253 252 252 252 253 253 252 252 253 253 252 253 253 253 253 253 253 254 254 253 254 253 253 253 252 253 253 253 253 253 253 253 253
282 282 281 281 281 280 280 280 280 280 279 277 277 276 275 274 273 273 273 273 272 271 270 265 265 266 268 267 273 276 276 276 276 275 275 275 276 270 266 265 265 262 260 259 257 256 255 256 255 253 253 253 252 252 251 252 252 251 253 253 252 252 252 252 252 253 253 253 253 253 252 253 253 252 252 252 252 252 253 253 253 253 253 253 254
283 282 282 281 280 280 279 279 278 277 277 276 276 276 275 274 273 273 273 272 272 270 268 267 268 268 268 268 270 270 271 273 273 272 271 269 263 261 261 260 260 261 260 257 256 256 256 255 252 252 252 251 251 251 251 251 251 251 251 251 252 252 255 255 255 253 253 253 252 252 252 252 252 252 252 252 252 252 252 252 252 252 252 253 252
282 280 279 279 279 280 279 278 276 276 276 275 275 274 273 273 272 272 272 272 271 270 269 268 268 268 269 267 266 267 268 266 265 264 262 259 258 258 258 258 257 257 256 256 255 255 255 254 254 253 252 251 252 251 251 251 250 251 251 250 251 251 251 251 251 251 251 251 251 252 251 252 252 252 252 252 251 252 252 252 252 251 251 251 251
280 279 278 278 278 277 277 277 276 276 275 275 275 274 273 272 272 272 272 271 271 270 270 268 268 269 268 265 265 265 265 264 264 264 261 259 258 256 256 256 256 256 255 255 254 254 254 254 253 252 252 251 251 251 250 251 250 251 250 250 250 251 251 251 251 251 251 251 251 251 251 251 251 251 251 251 251 251 251 251 252 252 252 252 252
281 280 276 277 277 278 276 275 275 276 276 274 273 272 273 272 272 271 271 271 270 269 269 268 269 268 266 265 266 266 265 264 263 261 260 259 257 255 254 254 254 254 254 253 253 253 253 253 252 252 252 251 251 251 250 250 250 250 250 251 251 251 251 251 251 251 251 251 251 251 251 251 251 251 250 251 253 253 252 252 252 252 252 252 252
281 279 278 277 275 276 276 274 275 272 273 272 272 272 271 271 271 271 270 270 269 269 268 267 266 263 265 266 266 266 264 262 261 260 259 258 257 256 255 254 253 254 254 253 253 252 252 252 252 251 251 251 251 251 250 250 250 250 250 250 250 250 250 251 251 251 251 251 251 251 251 251 251 252 252 253 252 251 251 251 251 251 251 251 251
279 279 279 277 276 275 274 274 272 271 271 271 271 269 270 270 270 269 269 269 268 267 267 265 262 262 264 266 265 265 261 259 258 258 258 257 256 255 255 254 254 253 253 253 252 252 252 252 252 252 252 252 251 251 251 251 250 250 250 250 250 250 250 250 251 251 251 251 250 251 251 251 251 251 250 251 251 251 251 250 251 251 251 251 251
278 277 275 274 273 272 271 272 271 271 271 270 270 269 269 269 269 268 268 268 267 266 265 263 261 262 263 264 263 261 259 258 258 257 257 256 256 255 254 253 252 251 251 251 251 251 250 251 251 252 252 252 251 251 251 251 251 250 250 250 250 251 250 250 251 250 250 250 251 251 250 250 251 251 251 251 250 250 250 250 250 250 251 251 251
276 274 272 270 269 270 271 271 271 270 269 268 268 268 267 268 267 267 266 266 264 264 264 261 260 261 260 260 260 259 258 257 256 255 256 255 255 254 253 252 252 252 252 252 251 250 249 250 250 250 251 251 251 251 251 251 251 250 250 250 250 250 250 250 251 251 251 250 250 250 250 250 250 250 250 250 250 250 250 250 251 252 252 252 252
274 272 271 272 271 271 270 270 269 269 268 268 268 267 266 266 266 265 265 264 263 262 261 260 260 259 259 258 257 257 256 255 255 254 254 253 253 253 252 252 252 252 252 252 251 250 250 250 250 250 250 250 250 251 251 251 251 251 250 250 250 251 251 251 251 251 250 250 250 250 250 250 250 251 251 251 251 251 251 251 252 252 252 252 253
273 273 272 272 272 270 269 268 268 268 268 267 267 266 265 265 264 263 262 262 261 260 259 259 258 258 258 257 256 256 255 255 254 254 254 253 252 252 252 251 252 251 251 251 251 251 250 250 250 250 250 250 250 250 250 250 250 250 251 251 250 251 251 251 251 250 250 251 251 250 250 250 250 251 251 252 252 252 252 252 252 252 252 253 253
272 271 271 270 270 269 268 268 267 265 266 266 265 264 263 262 262 261 260 259 259 258 258 258 258 257 256 256 255 255 254 254 254 253 253 253 253 252 252 251 251 252 251 251 251 251 251 251 250 250 250 250 250 250 250 250 250 250 250 250 250 250 251 252 251 251 251 251 251 251 251 251 251 251 252 252 252 252 252 252 253 253 253 253 254
271 271 270 270 269 269 268 267 266 266 266 265 263 263 261 261 260 259 259 258 258 257 257 256 256 255 255 255 254 254 253 253 253 253 252 252 252 252 252 251 251 251 251 251 251 251 251 251 250 250 250 249 249 249 249 249 249 249 249 249 251 254 254 254 253 253 253 253 253 253 252 252 252 252 253 253 253 253 253 253 253 253 253 254 254
270 270 269 268 268 267 267 266 266 265 264 264 262 261 260 259 259 258 258 257 257 256 256 256 255 255 255 254 253 253 252 252 252 252 252 252 252 251 251 250 250 250 250 250 250 250 250 250 250 250 249 249 249 249 249 248 249 249 249 249 252 253 253 253 253 254 254 253 254 254 254 254 254 254 253 253 252 252 252 253 253 254 254 254 254
268 268 267 267 266 265 265 265 265 264 263 263 262 260 259 259 258 257 257 257 257 255 255 255 254 253 253 253 252 252 252 251 251 251 251 251 251 250 250 250 250 250 250 250 250 250 250 250 249 249 249 249 249 248 248 248 248 248 250 252 253 253 254 254 255 256 256 257 256 255 254 253 253 252 252 252 253 252 253 254 254 254 254 255 255
Wind_Speed
4 6 4 5 4 5 5 4 5 4 4 4 4 5 4 4 5 5 2 4 4 4 4 4 4 4 4 4 4 4 4 4 3 3 3 3 3 3 2 2 3 3 2 3 2 2 3 4 4 4 3 3 4 3 3 3 2 3 3 3 4 3 5 5 6 7 5 4 5 5 5 4 4 2 4 4 5 5 5 4 4 5 5 5 5
5 6 4 4 5 6 6 4 4 4 4 4 5 5 5 5 5 3 5 5 4 5 5 5 4 5 4 4 4 4 4 4 4 3 4 4 4 3 4 4 4 4 3 4 4 4 4 4 5 5 3 4 4 4 4 3 3 3 4 5 5 5 5 5 6 5 8 3 5 4 3 2 5 4 4 6 5 5 5 5 4 4 5 5 5
4 4 5 5 6 6 5 5 4 5 5 5 6 6 6 5 4 6 6 6 5 5 6 5 5 5 5 5 5 5 5 5 4 4 5 5 5 4 5 5 5 5 5 6 6 4 4 5 6 5 3 4 4 5 4 5 4 5 6 4 5 6 5 6 4 5 7 6 4 5 3 3 4 7 5 4 5 5 6 5 5 5 4 5 5
4 4 4 5 5 5 6 5 5 5 6 7 7 7 7 6 5 6 7 5 6 6 5 5 5 5 5 5 6 6 6 6 5 5 6 6 6 6 5 6 6 6 6 6 6 5 6 5 7 5 4 5 6 6 6 5 6 6 5 5 5 6 5 4 6 5 3 6 2 3 4 4 5 5 5 4 5 6 5 6 4 5 6 5 5
4 4 4 5 5 6 6 5 6 7 8 7 8 7 7 7 5 7 6 6 6 5 5 5 5 6 8 8 8 7 8 7 7 7 6 6 7 7 7 6 7 7 7 8 7 6 7 8 8 5 5 7 7 6 6 6 6 6 6 5 5 5 4 5 5 4 5 7 7 3 4 3 5 6 5 6 5 5 4 5 5 6 6 5 5
4 4 4 5 6 6 7 5 7 8 8 8 8 8 7 6 7 6 6 8 7 7 7 6 7 9 9 9 9 9 8 8 8 8 8 7 7 7 7 7 7 8 8 8 8 7 8 9 8 7 6 8 9 8 6 7 5 6 6 6 5 4 4 4 4 4 5 7 6 7 2 5 5 4 5 4 6 8 6 5 4 4 5 6 5
4 4 5 5 6 7 7 8 8 8 8 8 7 6 7 7 7 8 7 7 8 8 7 8 8 8 9 8 9 9 9 8 8 8 8 8 8 8 8 8 8 8 8 9 8 8 8 8 8 8 8 8 9 9 8 6 6 7 7 6 5 4 4 4 4 4 5 6 6 5 6 3 4 7 3 3 5 4 8 9 7 5 6 7 9
4 5 5 5 6 9 8 7 7 8 7 6 6 7 7 7 7 7 5 8 9 9 9 9 9 7 9 8 9 7 8 7 7 8 8 8 8 8 9 8 9 8 9 9 8 8 9 9 9 9 9 9 9 9 8 8 6 6 6 4 4 4 4 4 4 5 5 5 6 7 4 5 5 4 4 3 5 4 3 6 11 10 8 7 8
5 5 5 6 9 9 7 5 5 6 6 6 7 8 7 7 6 6 6 8 8 9 8 8 8 8 8 8 8 7 8 9 8 8 8 9 8 9 9 9 9 9 9 9 8 8 8 8 8 9 9 10 11 9 8 7 6 7 6 5 4 5 4 4 5 5 5 5 7 4 6 6 6 6 6 5 6 8 6 5 9 8 9 10 8
5 5 6 9 9 7 6 5 5 5 6 8 8 8 7 7 6 7 8 8 8 8 7 7 8 9 9 9 8 8 9 8 10 13 12 9 8 8 8 8 8 9 9 9 9 8 9 8 8 11 12 13 14 13 14 14 12 9 6 6 6 5 5 4 4 5 5 6 6 6 7 7 7 5 7 6 5 5 7 7 9 9 9 11 9
5 6 8 9 8 6 5 6 5 6 8 7 7 7 8 7 6 7 8 8 9 8 7 8 9 9 9 9 9 9 9 9 14 15 17 18 11 8 8 9 8 8 9 9 11 10 8 7 7 8 10 11 10 13 14 14 13 13 11 10 8 6 4 4 5 5 4 5 5 5 6 9 7 4 6 7 5 6 7 7 9 10 9 13 14
6 7 8 7 6 7 7 6 5 8 6 8 8 8 6 6 7 8 8 9 9 6 7 10 9 8 8 8 9 10 10 11 15 16 17 18 15 10 8 8 8 8 9 10 9 9 9 8 6 5 6 7 7 7 8 10 12 12 10 9 9 8 7 5 5 5 5 4 5 5 5 8 7 5 6 6 7 7 7 9 9 10 11 10 11
6 7 8 7 8 7 6 6 7 7 8 9 7 5 6 6 7 8 10 10 5 7 10 8 9 9 8 9 10 11 11 12 15 16 16 17 17 14 8 9 9 10 9 9 9 9 8 7 7 6 6 8 7 6 4 4 6 7 6 6 5 5 7 9 9 6 4 5 7 6 6 7 7 6 5 6 8 10 9 9 10 10 10 10 9
6 8 8 8 8 7 6 7 8 9 8 7 6 6 6 9 9 8 7 5 7 8 8 9 9 8 9 10 10 10 11 11 15 15 15 16 17 14 8 9 9 10 10 9 8 8 8 8 7 8 6 5 5 4 4 4 4 3 2 2 3 4 7 9 10 9 8 6 6 8 6 4 8 7 7 7 8 9 11 11 9 8 9 10 11
7 8 8 9 7 7 7 8 9 9 8 7 6 7 8 8 8 8 7 8 8 9 9 9 9 8 9 8 9 10 11 12 12 14 15 16 16 13 8 8 8 9 9 9 9 9 8 8 7 8 6 5 4 5 5 5 4 4 3 3 3 4 4 4 3 2 4 4 6 6 7 6 8 9 9 9 10 9 7 8 9 9 11 12 11
8 7 8 9 9 8 8 8 9 9 8 7 7 9 9 9 10 8 7 7 7 6 7 6 8 8 8 8 8 11 11 10 12 13 15 15 16 9 8 8 8 8 9 9 8 8 8 7 7 7 6 5 6 10 8 5 4 4 4 3 3 3 3 3 5 6 5 5 5 6 6 7 10 9 10 9 8 7 9 9 8 8 10 10 11
10 9 9 10 9 9 8 9 9 9 8 8 9 9 9 10 9 6 6 8 7 8 9 8 8 8 7 7 9 10 11 9 11 14 15 16 11 7 7 7 7 8 9 8 7 7 6 6 6 6 5 5 7 11 10 8 4 4 3 3 2 2 5 3 6 9 11 12 14 16 17 17 16 17 16 14 11 12 9 8 7 7 9 11 12
10 9 10 10 10 9 9 9 10 9 8 9 10 10 9 7 8 6 8 8 8 9 7 7 7 7 8 8 9 10 11 9 10 12 14 15 11 7 7 7 7 8 8 6 6 5 5 9 7 5 5 5 9 9 7 4 3 3 2 2 3 4 4 2 2 4 11 15 16 17 17 15 13 10 10 13 15 13 7 8 8 7 10 10 12
9 10 11 11 10 9 8 8 9 9 9 10 9 9 9 9 7 4 7 7 8 6 6 7 7 6 8 8 9 10 10 9 9 12 13 14 10 6 7 6 7 7 6 6 3 5 4 5 7 7 6 6 9 7 6 4 3 2 3 3 4 5 4 3 5 6 6 7 6 3 3 5 5 5 7 12 14 11 5 7 7 7 8 9 10
11 10 9 9 8 8 7 8 9 9 10 10 8 9 8 5 6 7 7 6 7 6 6 6 7 8 6 7 8 8 9 9 7 12 13 13 13 8 6 6 8 8 6 6 5 3 3 3 6 10 10 9 8 7 5 4 2 2 2 3 4 6 3 4 6 7 5 1 2 4 5 5 5 6 6 6 7 5 7 7 6 7 8 9 9
9 9 8 8 8 9 8 8 10 9 9 9 8 6 6 7 6 6 7 6 6 7 7 7 7 8 6 6 7 7 7 8 8 10 13 13 14 11 6 8 7 7 6 5 6 6 5 5 4 8 10 9 7 6 4 4 4 2 2 3 3 6 8 6 2 5 3 3 3 3 4 5 5 7 7 6 6 6 6 8 7 7 8 8 9
9 8 9 9 9 9 9 8 8 9 8 7 7 8 7 6 7 6 6 6 7 8 7 6 7 8 6 6 6 7 7 10 7 8 11 13 13 13 8 8 8 6 5 5 5 5 5 5 5 6 8 6 5 4 4 5 6 2 3 9 12 13 8 3 3 2 2 3 4 5 5 6 5 4 6 7 6 6 6 6 8 8 7 8 10
8 9 9 9 9 9 9 9 9 7 8 7 8 9 6 5 6 6 6 6 7 8 8 7 6 7 7 7 6 7 6 6 9 8 10 13 13 14 14 8 9 6 6 6 6 6 4 4 4 7 7 5 4 4 5 7 5 3 9 10 11 12 6 3 3 3 4 3 4 5 4 5 5 5 5 6 6 6 6 7 7 7 8 9 10
8 8 8 9 9 9 8 8 8 7 8 7 6 8 7 6 6 6 6 7 7 8 7 6 6 7 8 8 7 6 5 6 7 11 9 11 13 12 11 10 10 6 5 5 4 5 5 5 5 7 5 4 5 6 6 6 5 8 9 11 9 5 2 3 2 3 4 4 4 5 5 4 4 6 6 6 6 6 7 7 8 9 9 10 11
7 8 9 8 9 8 7 7 7 7 7 6 7 8 7 6 7 6 6 6 7 8 8 6 7 8 7 9 8 6 5 5 5 6 9 9 11 10 10 11 11 11 5 4 5 6 6 8 7 4 4 5 4 4 4 4 6 8 9 7 5 2 3 2 2 2 3 4 5 5 5 5 6 6 6 6 6 7 7 7 6 8 8 10 11
8 9 9 8 9 7 8 8 7 7 7 6 8 7 7 6 7 6 6 7 7 8 8 7 8 7 8 8 7 6 4 5 5 4 4 6 7 11 13 12 11 9 8 7 9 10 9 7 5 2 1 1 1 1 2 1 2 4 5 6 3 2 1 1 2 3 5 5 5 6 6 5 6 6 6 6 6 7 6 7 7 8 6 8 10
9 8 9 8 8 7 8 8 6 6 5 6 6 6 6 6 6 7 7 7 7 8 8 8 8 7 8 8 7 4 4 4 5 4 4 6 5 5 7 8 10 10 7 6 7 5 5 4 2 4 4 5 3 1 2 2 2 2 2 2 1 0 0 0 2 3 4 4 5 5 5 5 5 5 6 5 7 6 4 7 7 9 7 7 9
9 10 10 8 7 7 7 8 8 6 6 6 6 6 6 6 7 9 9 9 8 9 8 8 9 9 9 8 7 4 5 5 6 6 6 6 6 6 6 6 6 6 6 5 5 4 4 3 3 2 2 2 1 1 1 1 2 3 3 1 1 2 2 3 3 2 4 3 4 4 5 4 6 6 5 6 7 7 4 6 6 9 7 6 8
9 10 10 7 8 7 6 6 6 6 6 6 7 7 7 7 8 8 7 6 7 8 8 8 8 7 7 7 7 7 6 7 10 9 9 10 11 9 8 7 6 5 7 9 5 3 3 3 3 3 3 2 1 2 2 3 3 1 0 1 2 2 2 2 4 5 4 4 5 5 6 5 6 6 6 7 7 6 5 6 6 7 8 5 9
8 10 9 7 7 6 6 6 6 6 6 7 6 6 6 8 7 7 7 6 8 9 8 8 7 6 7 8 8 9 9 8 8 15 13 14 14 13 11 11 10 7 9 13 7 4 4 5 4 4 3 3 3 3 3 3 2 1 3 4 3 4 3 3 4 5 4 4 5 5 6 6 7 7 7 8 8 6 5 6 7 5 7 9 10
8 9 8 8 7 7 6 6 6 6 6 6 5 6 6 3 6 7 7 6 6 8 12 13 11 9 8 7 7 9 4 5 12 16 16 16 15 15 14 14 14 13 12 8 5 5 5 5 5 4 4 4 4 4 3 2 4 3 4 4 5 4 5 4 4 4 5 4 5 5 5 6 8 7 8 8 9 9 6 5 5 6 7 8 10
9 9 8 7 7 7 6 6 5 5 5 5 5 5 5 6 5 2 0 5 7 9 11 12 12 12 13 9 5 3 8 10 13 15 16 17 16 15 15 14 14 14 13 12 6 5 5 5 5 5 4 4 4 2 2 4 3 4 4 4 6 4 4 5 3 3 4 4 5 6 6 6 7 7 7 8 9 9 8 8 6 7 8 8 10
10 10 9 8 7 7 6 6 6 6 6 5 5 5 6 6 7 6 2 2 1 5 10 13 13 12 12 11 11 8 8 11 14 15 16 16 16 14 14 14 12 12 11 7 5 5 5 5 5 4 4 4 4 3 4 3 4 5 4 4 5 5 4 4 3 4 4 5 5 6 6 6 7 8 8 8 8 10 9 9 8 8 8 9 11
11 9 9 9 8 7 7 6 6 6 5 5 6 5 6 6 7 6 6 5 3 3 3 2 3 7 9 10 11 11 12 13 14 14 14 15 15 15 13 8 9 9 8 5 5 5 4 4 3 4 3 2 2 2 3 4 3 3 3 5 5 5 5 4 4 5 4 5 5 7 6 6 7 7 8 8 7 8 9 10 9 9 10 9 10
9 11 15 11 7 7 6 6 6 5 5 6 6 6 6 6 6 6 7 8 8 7 4 1 1 2 5 7 11 13 14 15 15 14 14 15 14 14 12 6 5 4 4 3 4 4 5 5 4 4 3 4 4 3 4 3 4 4 4 5 5 5 5 4 5 4 5 5 6 6 7 7 7 7 7 9 9 9 9 9 9 9 10 11 10
10 9 8 10 9 7 6 6 5 5 6 6 6 6 6 6 7 8 7 7 6 5 4 3 1 4 2 6 11 12 13 14 14 14 15 15 14 14 7 5 5 4 4 3 3 3 2 3 3 3 3 3 2 3 4 4 4 5 5 4 5 5 5 5 6 5 5 6 7 7 7 7 7 7 7 8 9 10 10 10 10 10 10 10 10
8 8 8 8 6 5 5 6 6 6 5 5 5 6 6 6 5 6 5 6 6 6 6 4 2 1 4 3 2 10 13 12 13 13 13 12 12 7 4 6 5 4 3 4 4 3 4 4 3 3 3 4 3 5 3 4 4 4 4 5 5 5 6 5 6 6 6 6 7 6 7 7 7 7 7 9 9 8 9 9 10 11 11 12 11
8 8 8 5 4 6 6 6 6 6 6 6 6 6 6 6 7 6 6 7 7 6 6 7 6 7 8 5 4 5 7 9 10 7 6 7 6 4 4 4 4 5 4 3 4 4 4 3 4 4 4 4 4 5 4 4 4 4 5 5 5 5 8 8 9 7 7 7 7 7 7 7 7 7 7 8 10 10 10 9 9 11 12 13 9
7 9 10 9 8 7 5 5 5 6 6 6 6 6 5 5 6 6 6 5 6 6 5 7 7 7 7 7 6 6 8 5 5 6 4 3 3 4 4 4 4 3 3 4 4 4 4 4 4 4 4 4 4 4 5 5 5 5 5 5 5 5 6 6 6 6 6 7 7 7 7 7 7 6 6 7 9 9 10 10 10 10 11 12 11
7 7 8 10 6 6 5 5 6 6 5 7 6 5 5 5 6 6 5 5 6 6 6 7 7 7 6 8 7 7 6 7 6 5 5 5 4 3 4 4 4 5 5 4 4 4 4 4 4 4 4 4 5 5 5 5 5 5 5 5 5 6 7 6 7 7 7 7 7 7 7 8 7 7 7 7 9 9 9 10 10 10 10 11 13
7 7 6 7 8 6 6 5 6 7 6 4 4 4 6 4 4 4 5 6 5 5 6 5 5 3 5 7 8 8 6 6 5 5 5 5 5 5 4 4 5 4 4 4 4 4 4 4 4 4 4 4 4 4 4 5 5 5 5 6 5 6 6 7 7 7 8 8 8 8 8 7 7 6 8 8 8 9 9 9 10 10 11 11 12
6 7 8 6 6 6 6 5 4 3 3 2 4 5 3 3 5 5 5 6 4 4 4 4 3 4 5 11 11 10 5 4 4 4 4 4 5 4 4 4 3 3 4 4 4 4 4 4 4 4 4 4 4 4 4 4 5 5 5 5 6 6 7 7 7 7 7 8 8 8 8 7 7 7 8 8 8 8 9 9 9 10 10 10 10
7 7 7 5 5 5 5 4 3 3 3 4 4 3 3 4 5 4 4 3 4 4 5 5 5 5 5 8 8 7 4 5 3 5 5 5 4 4 3 3 3 3 3 3 3 4 4 4 4 4 4 5 4 4 5 6 5 5 6 6 6 7 8 8 7 7 7 8 8 9 8 8 8 7 7 8 8 8 9 9 10 9 11 11 12
5 4 3 4 3 1 1 2 3 3 4 3 4 3 3 3 3 3 3 4 4 4 5 6 8 6 5 5 5 4 5 5 5 5 4 3 4 3 3 2 2 2 3 3 3 3 3 4 4 4 4 5 5 4 5 5 5 6 6 6 7 8 8 8 8 7 7 7 8 9 8 8 8 8 8 9 7 9 9 9 10 10 11 11 12
4 5 5 4 3 3 3 3 3 3 2 2 3 2 1 3 4 3 4 4 3 3 5 7 8 6 4 5 5 5 5 4 3 3 3 3 3 3 2 2 2 3 2 3 2 2 3 4 4 4 5 5 4 5 5 5 5 6 6 7 7 9 9 9 8 6 6 8 9 9 9 8 8 8 8 8 8 8 10 9 10 11 13 12 11
4 4 4 5 3 2 2 3 1 3 3 3 3 3 3 3 4 4 3 3 4 5 7 6 6 6 5 5 4 2 4 4 3 3 2 2 2 2 2 2 2 2 2 3 2 3 4 4 4 4 5 6 6 6 6 5 6 6 6 7 8 9 9 8 7 6 7 8 9 9 9 9 9 9 10 9 8 8 9 11 10 11 11 13 13
4 4 3 1 3 1 1 1 3 2 3 3 3 4 4 3 5 5 3 5 7 5 6 5 5 4 3 3 4 4 4 4 4 3 3 2 2 1 1 1 1 2 2 2 2 3 3 4 4 5 5 6 6 7 7 6 6 6 6 6 7 8 8 7 7 7 8 8 8 9 9 9 10 9 10 10 10 9 10 10 11 12 12 13 13
2 1 1 1 2 2 2 3 3 3 3 3 4 4 4 5 6 5 4 5 6 6 7 5 4 4 4 4 3 4 4 3 2 2 1 1 1 1 1 1 2 2 3 3 3 3 3 4 4 4 5 6 6 6 6 7 6 7 7 7 7 7 10 11 8 8 8 8 8 9 10 10 10 10 10 10 10 8 9 11 10 10 12 11 13
2 3 3 2 2 2 2 3 2 3 3 4 5 5 5 6 4 4 4 4 4 4 3 4 3 3 3 3 3 4 3 2 2 1 1 1 1 1 1 1 1 2 2 2 2 3 3 4 4 4 5 5 6 6 7 7 7 7 7 7 9 17 18 18 12 9 12 11 10 10 10 10 11 11 10 9 9 10 11 12 12 14 13 13 11
1 1 2 2 2 2 2 2 3 3 3 4 5 5 6 4 4 3 4 4 4 3 3 3 4 4 6 5 3 3 3 3 2 1 1 1 0 0 1 1 2 2 2 3 3 4 4 4 4 5 5 5 5 6 6 7 7 8 7 8 15 19 18 19 19 19 15 10 10 9 8 9 9 10 10 10 10 11 12 12 12 13 13 13 13
2 2 2 3 3 3 3 3 4 4 4 5 6 6 5 4 4 3 3 4 4 3 4 5 5 5 5 4 4 4 3 2 1 1 0 0 0 1 1 1 2 3 3 4 4 4 4 4 5 5 5 6 6 6 6 7 7 7 12 17 19 18 19 19 13 13 17 14 10 9 9 10 11 12 10 10 10 11 13 15 15 12 12 12 13
Wind_Direction
229 242 233 233 231 234 233 222 231 219 214 207 209 217 215 207 208 212 190 220 197 193 204 209 207 202 206 212 209 216 214 228 214 180 190 209 219 207 200 188 205 240 231 271 260 223 224 227 244 242 211 216 238 241 241 241 198 212 211 198 212 198 178 198 220 257 270 248 256 266 293 314 299 248 289 280 290 288 286 276 279 277 281 281 281
227 238 228 232 228 238 238 229 228 215 218 217 221 224 221 217 216 199 210 226 194 208 208 213 205 204 204 218 218 216 219 222 214 188 204 216 231 214 214 209 220 234 223 237 246 230 226 230 248 247 218 220 233 236 226 231 215 213 222 201 222 221 200 188 233 239 273 266 279 266 268 254 269 277 281 303 289 287 286 285 278 268 272 279 282
233 224 227 228 235 236 242 235 224 224 221 226 226 228 226 223 211 211 221 224 217 212 215 211 212 207 214 222 221 223 224 224 219 201 214 214 222 225 219 213 216 228 229 234 236 233 237 239 248 246 226 231 234 233 220 221 214 213 228 204 216 230 214 204 215 251 261 272 239 281 258 278 270 292 290 270 274 274 282 279 280 279 274 278 276
240 226 232 237 235 240 238 237 229 227 226 227 228 230 227 224 212 220 225 221 223 228 219 219 214 214 222 229 225 226 228 227 223 212 217 216 221 227 223 219 222 228 230 235 230 220 228 240 248 238 231 237 243 227 222 216 214 218 226 221 209 227 228 212 215 234 255 282 240 258 277 277 276 273 278 267 270 278 265 275 266 268 273 273 274
237 234 228 243 242 236 242 232 234 233 232 231 233 232 230 226 217 223 225 228 229 227 230 219 220 217 223 224 225 224 225 222 221 222 222 219 221 225 225 222 225 228 232 234 232 220 224 226 241 223 215 231 252 240 222 218 221 214 226 225 213 222 227 221 232 223 255 269 284 242 262 259 256 277 276 291 283 263 268 262 272 277 276 263 265
233 234 231 236 248 241 241 232 233 235 234 236 236 233 232 227 224 226 217 229 229 225 225 220 215 222 224 226 223 225 224 220 220 221 221 220 223 227 229 228 230 231 233 235 234 227 226 231 234 225 218 223 242 248 233 228 222 218 228 229 221 219 227 242 235 245 249 266 278 296 235 279 285 261 278 269 291 301 296 285 278 267 283 296 281
229 228 230 231 247 247 240 234 231 234 233 235 236 234 233 230 225 229 218 224 229 230 227 228 228 225 231 228 229 227 229 224 222 222 222 222 223 225 230 230 234 235 236 236 235 230 229 234 237 228 226 228 237 243 245 237 226 227 225 226 215 210 229 242 247 257 263 280 283 265 287 252 254 294 274 270 282 282 301 308 302 302 304 307 306
230 229 224 234 239 247 241 236 232 235 237 235 236 235 235 232 229 232 219 226 229 230 229 227 233 225 234 231 235 232 235 234 228 225 225 224 223 229 229 232 235 239 242 242 239 236 233 233 236 235 229 232 231 238 231 241 229 234 226 215 206 207 226 241 250 258 272 279 279 298 280 291 285 254 279 304 297 283 254 305 307 312 307 300 292
232 228 226 233 240 240 242 235 234 238 237 238 239 239 234 233 232 228 224 231 233 234 233 232 236 236 236 234 237 232 232 234 226 222 224 228 223 231 231 233 236 241 247 248 243 239 238 235 236 240 231 229 223 227 227 218 227 236 231 199 204 206 224 230 240 261 270 272 288 277 291 292 285 299 304 296 295 296 304 297 291 296 297 297 284
229 232 230 237 242 243 239 235 232 230 232 235 237 237 236 233 228 230 230 231 236 235 235 234 233 237 239 238 235 234 236 236 232 221 217 221 221 225 233 235 236 239 245 253 254 245 240 237 240 236 235 238 247 242 243 239 227 222 222 191 200 205 215 226 242 251 265 279 279 292 292 286 291 292 291 286 288 293 296 295 294 299 295 290 291
230 229 240 242 244 247 239 239 226 229 231 235 238 234 235 229 226 232 234 233 234 234 230 236 233 233 236 240 240 236 239 239 232 228 228 225 220 222 225 235 233 236 239 243 251 255 250 238 241 245 249 253 250 246 244 242 238 230 213 199 194 196 209 227 246 246 261 266 277 276 275 284 284 283 283 294 289 285 291 289 287 294 291 307 309
234 235 241 251 249 243 240 238 231 237 232 236 234 234 231 225 227 229 234 237 235 226 229 233 235 233 234 238 242 243 245 240 235 233 231 230 225 225 224 233 236 234 236 238 244 249 255 256 246 237 239 237 238 246 248 246 241 227 215 215 219 226 234 232 252 260 258 272 278 260 273 277 289 291 288 292 291 287 280 281 277 276 282 285 298
237 245 248 246 250 244 241 235 237 240 236 236 237 231 226 229 231 228 232 233 227 223 232 231 236 232 229 236 241 244 247 245 241 236 234 233 231 226 227 229 235 239 237 238 239 243 248 253 258 244 241 228 229 234 225 228 220 205 208 221 237 244 256 262 265 268 282 269 271 270 262 284 286 278 271 281 288 286 284 280 279 280 283 295 306
231 245 249 246 245 243 239 235 240 241 241 238 233 231 227 232 232 229 235 232 224 232 233 231 235 231 227 231 241 247 248 246 243 241 239 237 235 229 230 231 235 240 241 240 239 238 239 240 246 256 244 232 226 211 200 197 183 174 186 196 208 238 251 261 271 278 277 272 270 272 271 251 269 274 272 269 272 275 283 283 293 306 309 299 305
246 241 246 249 244 243 237 234 239 245 242 239 233 232 231 239 238 233 225 228 225 227 228 230 233 232 230 229 238 248 250 246 242 241 241 241 240 235 234 232 235 240 243 242 240 238 237 233 234 243 247 233 211 190 183 177 168 186 196 210 215 222 227 237 236 234 247 251 250 251 258 248 252 260 264 264 251 255 277 307 319 314 307 307 299
247 246 245 247 242 237 231 235 239 243 243 238 233 237 233 232 236 231 225 235 233 235 240 227 236 233 229 225 232 249 254 242 239 240 242 242 241 236 232 230 233 238 243 240 239 238 235 232 232 235 233 224 204 192 176 165 171 184 208 219 224 226 233 233 249 256 254 242 230 237 235 244 262 269 282 287 303 324 318 317 323 314 306 302 296
247 243 244 246 243 237 227 231 238 239 236 236 237 237 237 237 237 220 225 232 230 227 231 228 228 232 232 222 227 246 258 242 231 237 240 241 240 235 231 230 234 237 241 239 237 236 230 222 220 221 212 205 190 187 185 176 167 189 208 229 232 248 255 244 260 269 276 279 279 280 284 287 289 290 294 307 314 314 316 316 308 318 307 302 296
246 244 245 244 241 237 229 224 232 237 233 233 236 239 239 243 239 211 216 229 231 231 228 234 229 223 226 228 220 237 253 247 226 233 238 239 231 228 227 227 236 236 242 239 234 229 227 215 204 199 189 188 182 184 188 181 169 187 194 228 257 258 264 227 234 251 264 273 275 280 284 285 291 303 315 316 314 316 327 308 309 315 296 292 294
248 243 243 241 241 238 232 224 227 232 234 236 233 238 237 234 236 210 223 227 237 234 224 231 237 226 223 229 226 228 250 254 232 235 236 237 233 224 222 225 236 239 233 239 220 218 215 205 178 177 172 173 177 184 200 191 156 176 192 218 255 258 255 230 248 264 262 264 267 282 316 317 325 323 313 313 314 318 318 297 304 295 289 291 293
245 244 247 247 244 241 231 226 228 227 234 239 235 233 239 242 234 222 230 222 237 237 232 232 240 240 221 221 229 226 238 252 240 236 238 239 235 223 213 216 232 237 225 213 205 214 188 179 183 177 173 175 185 196 208 221 184 180 191 216 244 272 245 245 251 262 283 344 333 311 304 314 308 309 311 314 311 305 301 294 288 285 283 286 286
249 247 247 248 248 244 238 226 232 232 230 235 237 238 230 235 235 226 234 230 234 246 239 239 241 251 234 224 228 230 223 240 247 235 240 240 237 230 211 218 224 223 212 198 201 189 183 183 185 188 184 186 189 205 212 243 255 226 210 218 226 264 281 273 319 33 11 320 307 305 306 306 307 309 303 301 300 294 286 288 281 275 278 283 288
248 249 246 245 247 247 242 237 229 237 237 231 238 241 235 229 231 229 230 229 232 240 243 240 243 253 253 234 229 236 225 222 243 246 241 240 239 231 213 218 207 194 195 199 191 195 184 175 177 190 190 184 190 200 236 258 268 252 250 276 288 294 298 26 52 13 356 326 322 318 312 299 296 296 290 285 281 280 279 276 281 282 278 279 283
246 246 246 247 247 246 245 239 237 228 236 227 230 241 238 228 234 224 227 231 232 243 243 240 241 252 260 251 235 235 229 227 227 236 240 238 237 237 216 203 196 177 182 191 193 182 135 145 159 172 175 170 198 234 252 263 274 283 286 291 294 302 353 63 4 351 329 326 307 291 288 284 283 280 276 278 277 278 282 287 292 294 289 283 277
241 244 244 245 249 248 244 243 237 235 233 228 226 237 240 230 230 224 222 224 233 242 246 237 237 246 252 261 247 231 226 225 227 225 231 235 235 216 195 184 180 170 172 173 164 157 151 139 143 153 174 211 237 251 258 272 277 283 290 293 301 19 38 343 357 326 311 297 284 275 274 269 272 276 273 278 286 293 294 294 291 288 284 284 281
237 242 242 242 244 247 247 243 237 233 233 217 230 232 239 225 234 230 215 224 229 236 245 227 230 238 243 250 255 242 225 224 233 234 228 231 208 190 182 175 169 153 134 132 139 141 145 148 157 178 210 235 260 295 339 341 308 300 294 302 356 24 0 339 313 306 295 286 285 279 274 268 273 280 289 298 300 298 292 288 286 280 280 279 277
245 245 244 240 243 242 247 251 240 234 232 218 225 230 229 223 226 231 211 225 226 230 240 231 234 236 240 246 249 243 224 221 227 231 223 199 186 189 185 176 152 139 132 140 141 143 150 159 166 168 74 344 41 271 231 256 324 328 335 347 346 325 307 324 306 298 283 288 280 281 280 286 288 293 299 299 292 284 288 287 294 285 284 287 290
251 254 250 243 243 237 239 250 251 237 226 226 227 231 226 228 227 233 222 223 226 230 235 233 237 235 240 242 241 227 217 213 211 203 183 165 155 142 125 118 124 124 125 138 139 139 138 129 144 197 211 233 224 117 107 47 9 319 327 308 304 353 38 238 256 265 279 279 283 281 289 288 295 298 287 283 278 277 272 281 285 285 291 286 285
246 253 251 242 244 234 236 242 243 252 237 216 227 229 226 217 223 228 222 217 220 232 226 229 230 230 236 236 228 204 215 215 209 192 192 170 149 142 138 137 141 146 144 146 138 142 137 169 178 119 96 77 69 18 338 328 285 288 286 21 48 39 326 318 311 298 282 279 280 290 285 286 283 277 281 276 273 278 274 266 271 283 283 287 289
246 253 254 247 248 234 235 239 235 238 246 234 227 222 222 210 221 241 237 222 215 226 228 234 233 232 226 222 210 219 217 219 220 199 187 176 167 161 163 163 154 154 162 157 142 134 141 158 139 153 156 168 210 247 260 261 257 211 44 0 318 328 331 330 298 281 274 283 279 277 281 286 284 280 281 284 279 278 270 271 263 262 283 265 267
250 253 250 244 247 237 235 234 231 231 237 246 250 254 226 223 222 225 250 227 232 236 232 236 227 215 219 228 203 209 215 221 192 190 185 182 179 169 161 157 159 156 168 173 154 155 161 160 178 184 197 211 235 249 252 232 223 270 291 305 314 314 291 271 258 266 270 266 271 284 285 291 289 291 288 284 289 281 261 268 279 270 276 282 281
249 254 252 246 236 232 231 238 229 225 228 234 237 253 269 238 232 244 242 237 223 229 238 243 237 208 198 230 234 239 243 190 185 187 183 180 174 169 166 168 170 172 177 172 146 161 168 184 203 199 208 207 229 233 196 213 264 278 280 284 282 277 278 264 260 257 263 266 272 269 273 280 284 289 289 287 290 291 289 262 255 271 266 272 278
243 247 246 247 234 226 227 229 231 226 231 215 227 234 247 264 249 198 311 233 234 239 241 238 232 219 211 211 187 218 214 201 186 180 176 177 172 170 171 172 175 176 186 169 164 187 192 205 212 211 197 199 207 201 225 251 259 255 268 291 280 271 266 271 261 253 269 274 274 274 272 274 277 282 284 287 289 290 291 293 279 274 276 270 266
238 245 245 245 239 228 226 225 222 217 231 224 224 214 229 236 255 251 229 354 237 240 237 233 229 224 219 209 193 189 181 185 180 171 168 167 166 167 175 178 181 178 180 183 171 191 191 197 200 186 180 218 226 234 250 245 249 254 242 245 267 270 264 269 289 283 272 267 271 271 273 274 278 282 282 284 288 288 292 286 287 279 276 281 282
232 236 239 236 232 231 225 222 217 219 215 218 223 218 222 225 238 240 239 255 282 305 347 355 216 216 210 195 195 187 176 167 161 157 157 162 166 169 165 162 166 188 192 177 172 198 177 194 201 205 221 223 234 227 250 248 241 241 252 251 251 264 266 273 278 272 272 271 269 274 277 275 272 280 284 283 274 276 282 284 287 289 288 277 281
236 238 239 239 232 233 227 219 216 214 211 215 219 217 226 224 223 224 224 226 227 219 209 202 343 165 177 186 182 171 163 163 157 156 159 163 163 167 160 152 138 72 50 47 143 166 188 207 218 227 203 221 226 207 234 243 244 244 247 257 261 261 272 268 262 264 266 271 270 269 270 272 273 268 272 282 289 285 280 283 284 279 282 289 285
235 238 239 232 230 230 227 226 220 218 219 221 211 215 213 210 212 224 228 231 227 208 182 191 235 349 137 168 169 168 167 163 162 161 165 165 166 156 141 173 164 159 143 134 157 190 174 198 190 222 195 218 214 223 224 235 236 235 241 246 265 268 270 274 270 269 266 262 265 270 271 269 265 271 274 272 270 275 280 281 282 283 278 279 284
234 236 237 234 224 220 218 216 217 217 217 212 205 214 211 213 216 221 222 219 219 205 185 166 135 92 33 1 151 157 155 157 158 159 168 176 175 151 137 159 179 158 179 173 170 165 205 226 198 207 208 212 221 219 225 237 241 245 253 251 257 269 268 264 266 259 265 267 266 265 265 268 268 265 265 274 277 271 274 279 280 281 280 282 286
234 234 238 230 213 215 214 216 219 206 213 209 211 213 213 212 211 212 215 219 208 194 185 190 190 179 173 180 138 131 141 139 136 117 103 93 71 86 115 116 138 171 183 167 178 179 213 218 189 201 226 210 226 232 230 248 243 249 251 261 260 258 271 274 278 278 273 272 271 268 265 265 261 262 263 265 273 279 281 278 281 287 287 284 280
243 242 237 221 212 214 213 211 208 206 213 209 213 205 215 212 210 212 216 215 207 204 202 180 197 198 189 153 148 136 123 126 154 164 140 86 75 92 125 132 143 153 159 167 170 189 207 212 214 208 214 215 226 231 231 247 248 249 252 256 266 267 271 272 271 266 266 263 267 261 259 262 260 258 254 263 270 272 277 281 279 279 284 289 283
236 236 228 220 224 221 215 219 215 209 215 210 214 202 213 213 214 213 209 209 212 206 200 196 205 203 166 156 158 154 167 172 176 167 152 147 147 129 128 154 170 175 179 191 192 202 208 229 212 218 222 224 223 233 235 240 246 250 256 253 260 268 264 262 263 265 264 264 264 264 259 261 262 260 257 254 265 271 272 278 277 277 278 282 287
233 231 228 217 216 210 213 216 220 220 217 209 200 191 217 212 210 203 205 209 212 205 204 206 201 156 152 171 167 172 168 169 163 153 167 166 155 147 163 163 170 176 185 188 203 200 213 221 226 224 231 229 227 231 241 241 250 255 255 258 258 262 265 265 262 263 264 264 263 263 262 258 260 260 267 265 262 268 272 275 279 281 279 279 281
224 224 223 224 210 213 219 223 228 219 202 186 186 203 206 200 198 200 204 205 200 195 182 168 137 110 144 160 168 173 149 106 128 131 119 115 132 168 165 174 183 183 180 197 198 207 215 218 229 227 239 244 238 244 246 251 248 251 254 257 257 262 263 264 262 263 263 265 265 262 263 260 257 254 261 272 277 277 277 274 274 275 276 276 276
226 229 233 223 212 212 223 230 177 179 183 195 206 192 191 187 197 195 197 191 184 173 167 142 115 115 143 162 161 145 91 100 113 104 83 99 94 105 158 187 185 195 198 205 203 201 209 222 238 237 237 245 238 239 240 250 246 252 254 253 256 257 261 264 267 266 264 265 266 267 265 265 267 268 269 269 271 273 272 276 277 274 276 277 278
236 243 250 249 243 230 206 170 172 188 194 190 176 179 180 179 153 163 170 171 165 152 144 137 124 137 129 137 131 97 86 90 95 94 112 90 117 137 181 172 172 171 222 221 230 207 213 231 249 257 252 252 248 244 244 246 240 244 251 257 260 259 260 261 260 262 263 268 271 275 273 270 267 270 272 273 274 275 276 272 273 272 276 276 278
225 226 222 223 210 200 204 174 175 153 147 135 127 115 122 130 143 138 147 143 127 119 110 103 114 128 126 109 87 111 98 97 101 105 107 125 140 153 147 161 173 187 200 228 225 212 221 235 248 258 269 267 256 252 250 249 240 240 241 245 255 260 260 260 261 261 261 267 273 276 276 275 274 271 270 270 267 268 272 270 272 277 279 276 276
220 213 208 210 202 200 191 147 125 127 143 153 146 142 133 145 121 124 122 100 106 106 87 97 99 90 98 90 92 97 90 99 98 94 115 133 144 146 146 169 178 204 207 220 231 223 231 232 241 253 260 268 272 268 263 257 254 249 248 242 249 256 261 265 266 266 261 261 268 271 274 276 272 268 268 269 267 263 266 271 268 267 270 277 278
205 206 214 198 207 175 141 124 135 158 144 148 143 150 141 120 84 91 94 101 106 104 98 111 118 125 123 126 133 131 125 116 123 135 149 146 155 154 159 176 198 217 232 237 236 246 249 250 247 249 258 263 268 270 273 270 266 261 257 256 255 262 265 266 264 258 260 259 258 265 269 271 275 277 274 272 273 269 271 269 270 275 275 275 278
127 100 116 126 112 140 150 153 149 137 148 142 121 106 105 109 94 92 90 106 107 112 110 114 123 127 132 129 118 111 111 100 114 128 147 160 171 161 171 166 221 238 239 245 249 236 251 253 256 256 262 265 267 271 272 274 272 270 269 267 263 263 270 272 264 260 250 254 252 257 263 267 271 272 274 274 272 271 274 280 279 274 275 276 279
133 142 136 148 157 158 154 161 150 157 143 131 121 114 98 96 93 100 111 110 115 115 123 124 119 105 99 103 107 103 104 115 131 149 160 175 174 179 165 219 258 259 264 260 259 256 262 263 258 261 260 266 266 270 274 275 277 276 276 273 277 282 286 287 286 276 272 268 265 262 261 262 264 267 271 274 278 281 279 278 276 278 278 274 272
120 117 139 114 103 92 83 86 95 109 103 112 106 105 110 94 110 114 111 103 88 91 83 88 107 121 112 109 113 103 111 135 156 150 171 147 151 164 221 232 237 266 259 253 276 287 284 278 275 273 272 272 272 271 271 275 277 279 279 278 283 287 286 283 279 275 271 262 262 257 261 270 276 279 280 277 275 275 273 273 273 272 272 275 274
82 94 93 93 88 88 96 98 100 101 115 123 128 128 120 116 105 102 104 94 93 96 108 100 91 78 71 69 88 106 121 103 134 138 139 250 225 297 291 293 298 298 295 291 291 290 290 296 296 295 293 290 286 284 279 278 278 275 280 285 289 288 285 282 277 279 286 293 294 289 280 278 277 279 277 278 275 272 272 276 276 274 275 275 277